Location: downtown San Diego
(32.7310°N, 117.1990°W)
Time: 10:23:00
(UTC-07:00)

COSMOS 2487 - Pass Details

Date: 12 July 2018
Orbit: 451 x 454 km, 74.7° (Epoch: 20 September)

Event Time Altitude Azimuth Distance (km) Brightness Sun altitude
Rises 20:30:19 0° 352° (N) 2,467 6.8 -6.6°
Reaches altitude 10° 20:32:29 10° 0° (N) 1,590 5.6 -7.0°
Maximum altitude 20:35:49 40° 72° (ENE) 677 3.0 -7.6°
Drops below altitude 10° 20:39:06 10° 143° (SE) 1,577 4.6 -8.2°
Enters shadow 20:39:14 - 144° (SE) 1,627 4.6 -8.2°
